User: anonymous   Login
Location: Sabalos
(43.2860°N, 0.1414°E)
Time: 10:12:42
(UTC+00:00)
Language:

Cosmos 1892 - Orbit

View from above orbital plane
View from above orbital plane
View from above satellite
View from above satellite

Ground track
Ground track

The orbit data is extracted from the following two-line orbital elements,

1 18421U 87088A   20269.85177066 +.00000429 +00000-0 +19857-4 0  9995
2 18421 082.5027 174.1827 0016731 078.3225 281.9885 15.17231611799775
Epoch (UTC): 25 September 2020 20:26:32
Eccentricity: 0.0016731
inclination: 82.5027°
perigee height: 502 km
apogee height: 526 km
right ascension of ascending node: 174.1827°
argument of perigee: 78.3225°
revolutions per day: 15.17231611
mean anomaly at epoch: 281.9885°
orbit number at epoch: 79977

The dashed part of the orbit path shows where the satellite is in the earth's shadow,  

DLR